SAST,Max TemperatureF,Mean TemperatureF,Min TemperatureF,Max Dew PointF,MeanDew PointF,Min DewpointF,Max Humidity, Mean Humidity, Min Humidity, Max Sea Level PressureIn, Mean Sea Level PressureIn, Min Sea Level PressureIn, Max VisibilityMiles, Mean VisibilityMiles, Min VisibilityMiles, Max Wind SpeedMPH, Mean Wind SpeedMPH, Max Gust SpeedMPH,PrecipitationIn, CloudCover, Events, WindDirDegrees
2014-2-1,88,76,63,68,64,60,88,76,41,29.95,29.78,29.68,12,8,6,21,9,,0.01,4,,244
2014-2-2,72,68,63,63,60,55,94,77,57,30.06,30.01,29.95,19,8,6,17,8,,0.00,5,Rain,190
2014-2-3,75,66,56,64,60,55,94,76,56,30.04,29.92,29.80,19,8,5,15,7,,0.00,2,,101
2014-2-4,75,70,64,66,64,62,94,82,69,29.86,29.74,29.68,12,7,1,16,9,,0.00,5,,243
2014-2-5,76,70,64,64,61,55,94,76,44,29.92,29.85,29.80,19,8,6,12,7,,0.02,5,,223
2014-2-6,75,69,63,65,63,61,94,82,62,29.92,29.87,29.83,12,7,4,15,7,,0.00,4,,142
2014-2-7,82,72,61,66,63,61,94,74,44,29.86,29.77,29.68,12,7,0,14,6,,0.02,3,,240
2014-2-8,68,65,62,63,59,55,94,77,58,29.95,29.91,29.86,12,7,2,9,5,,0.00,6,Rain,96
2014-2-9,75,65,55,59,56,52,88,66,49,29.92,29.85,29.80,12,8,6,9,4,,0.00,2,,167
2014-2-10,75,68,60,64,61,57,88,74,59,29.94,29.89,29.86,12,8,6,12,5,,0.00,4,,113
2014-2-11,78,68,59,66,63,55,88,75,56,29.92,29.88,29.83,12,8,6,10,5,,0.00,3,,160
2014-2-12,80,71,62,68,65,61,94,79,60,29.92,29.86,29.80,12,7,3,13,4,,0.00,2,Fog,134
2014-2-13,72,70,68,68,66,64,94,87,71,30.12,29.98,29.83,12,6,2,13,6,,0.08,6,Rain,306
2014-2-14,73,70,67,68,66,64,94,89,77,30.16,30.10,30.06,12,6,2,20,8,30,0.04,7,Rain,102
2014-2-15,82,74,66,72,68,64,94,84,67,30.12,30.01,29.95,12,7,4,10,5,,0.00,4,Fog,162
2014-2-16,79,74,69,70,69,66,94,86,69,30.04,29.97,29.86,12,6,1,20,7,31,0.00,6,Fog,112
2014-2-17,97,81,65,70,67,64,94,64,30,29.86,29.78,29.73,12,8,5,23,5,,0.08,2,Rain-Thunderstorm,240
2014-2-18,74,72,68,70,68,66,94,89,76,30.04,30.00,29.92,12,5,2,17,8,,0.24,6,Rain,176
2014-2-19,85,76,67,72,67,51,94,77,22,30.01,29.82,29.65,12,7,3,15,11,,0.08,5,Rain-Thunderstorm,132
2014-2-20,66,63,60,65,60,57,94,86,67,30.09,29.94,29.83,12,6,2,15,9,,0.31,6,Rain,277
2014-2-21,72,64,55,61,57,53,88,73,51,30.17,30.11,30.09,12,7,6,10,5,,0.00,3,,104
2014-2-22,78,67,56,65,60,55,94,70,46,30.07,29.99,29.95,12,9,6,9,5,,0.00,1,,170
2014-2-23,75,67,59,66,63,55,94,80,61,30.04,30.00,29.98,12,8,6,12,7,,0.00,3,,257
2014-2-24,74,68,62,66,62,57,94,81,48,30.06,30.01,29.95,12,7,3,21,7,,0.08,5,Rain,218
2014-2-25,75,68,61,64,62,59,94,81,61,30.12,30.09,30.04,12,7,6,16,6,,0.00,6,,115
2014-2-26,79,70,61,64,62,61,94,75,53,30.09,29.98,29.86,12,8,6,15,8,,0.00,2,,98
2014-2-27,86,72,58,67,62,57,94,70,32,29.81,29.76,29.70,12,9,6,13,4,,0.00,1,,163
2014-2-28,84,72,59,66,62,57,94,77,46,29.74,29.69,29.62,12,7,0,12,7,,0.02,3,Fog-Rain,255